DateTimeUTC,F1_A11,F1_S11,BsB_S11,BsG_S11,BsR_S11,BbsB_S11,BbsG_S11,BbsR_S11,BaB_A11,BaG_A11,BaR_A11,Tu_S11,T_S11,Uu_S11,U_S11,P_S11,T1_A11
2021-11-07T06:00:00Z,00000200,21000000,,,,,,,-000.02,0000.36,0000.08,12.6,19.6,,00.0,0646.3,30.3
2021-11-07T06:01:00Z,00000200,21000000,,,,,,,0000.24,0000.17,-000.03,12.6,19.6,,00.0,0646.3,30.3
2021-11-07T06:02:00Z,00000200,21000000,,,,,,,0000.19,-000.28,-000.11,12.6,19.6,,00.0,0646.3,30.3
2021-11-07T06:03:00Z,00000200,61000000,,,,,,,0000.29,0000.64,0000.32,12.6,19.6,,00.0,0646.3,30.3
2021-11-07T06:04:00Z,00000200,41000000,0000.39,0000.45,-000.14,0000.15,0000.28,0000.22,-000.30,-000.44,0000.21,12.8,19.4,,00.0,0647.2,30.3
2021-11-07T06:05:00Z,00000200,01000000,0001.01,0000.20,0000.11,0000.51,0000.32,0000.06,0000.45,0000.58,0000.06,12.8,19.4,,00.0,0647.3,30.3
2021-11-07T06:06:00Z,00000200,01000000,0000.48,0000.22,0000.10,-000.20,0000.30,0000.07,0000.30,-000.08,-000.15,12.8,19.3,,00.0,0647.3,30.3
2021-11-07T06:07:00Z,00000200,01000000,0000.42,0000.46,0000.35,0000.15,0000.21,0000.03,0000.02,0000.35,0000.58,12.8,19.3,,00.0,0647.3,30.3
2021-11-07T06:08:00Z,00000200,01000000,0000.99,0000.01,0000.17,0000.41,0000.17,0000.05,0000.17,0000.22,-000.07,12.8,19.3,,00.0,0647.3,30.3
2021-11-07T06:09:00Z,00000200,01000000,0001.31,0000.32,0000.27,0000.33,-000.21,0000.09,0000.19,0000.19,0000.50,12.8,19.3,,00.0,0647.3,30.3
2021-11-07T06:10:00Z,00000200,01000000,0000.75,0000.12,0000.24,0000.26,0000.18,-000.16,0000.33,0000.02,0000.07,12.8,19.3,,00.0,0647.3,30.3
2021-11-07T06:11:00Z,00000200,01000000,0001.39,0000.23,0000.12,0000.16,0000.28,0000.21,0000.05,-000.07,-000.23,12.8,19.3,,00.0,0647.3,30.3
2021-11-07T06:12:00Z,00000200,01000000,0000.18,0000.09,0000.09,0000.14,-000.03,0000.01,0000.58,0000.52,0000.01,12.8,19.3,,00.0,0647.3,30.3
2021-11-07T06:13:00Z,00000200,01000000,0000.75,0000.05,0000.12,-000.51,0000.33,0000.15,-000.10,0000.07,0000.20,12.8,19.2,,00.0,0647.4,30.3
2021-11-07T06:14:00Z,00000200,01000000,0001.13,0000.30,0000.06,0000.67,0000.24,0000.01,0000.23,0000.15,0000.37,12.8,19.2,,00.0,0647.3,30.3
2021-11-07T06:15:00Z,00000200,01000000,0001.16,0000.29,0000.28,0000.27,0000.01,-000.04,0000.41,0000.22,0000.11,12.8,19.2,,00.0,0647.3,30.3
2021-11-07T06:16:00Z,00000200,01000000,0001.38,0000.09,-000.15,0000.50,0000.04,0000.01,-000.06,0000.42,0000.44,12.8,19.2,,00.0,0647.3,30.3
2021-11-07T06:17:00Z,00000200,01000000,0000.68,0000.30,0000.00,0000.61,0000.15,0000.00,0000.43,0000.43,0000.34,12.7,19.2,,00.0,0647.4,30.3
2021-11-07T06:18:00Z,00000200,01000000,0001.02,0000.30,-000.04,0000.19,0000.05,-000.05,0000.19,-000.09,0000.30,12.7,19.2,,00.0,0647.4,30.3
2021-11-07T06:19:00Z,00000200,01000000,0001.11,0000.13,0000.05,0000.62,0000.51,-000.05,0000.27,0000.34,-000.03,12.7,19.2,,00.0,0647.4,30.3
2021-11-07T06:20:00Z,00000200,01000000,0001.16,0000.23,0000.11,0000.99,0000.09,0000.10,0000.39,0000.26,0000.09,12.7,19.2,,00.0,0647.3,30.3
2021-11-07T06:21:00Z,00000200,01000000,0000.82,0000.39,0000.08,-000.05,-000.11,0000.00,-000.01,0000.32,-000.00,12.7,19.2,,00.0,0647.3,30.3
2021-11-07T06:22:00Z,00000200,01000000,-000.50,-000.13,0000.13,0000.10,0000.26,0000.00,0000.14,-000.25,0000.09,12.7,19.1,,00.0,0647.4,30.3
2021-11-07T06:23:00Z,00000200,01000000,0000.86,0000.07,0000.23,0000.16,0000.25,0000.19,-000.12,0000.38,0000.33,12.7,19.2,,00.0,0647.4,30.3
2021-11-07T06:24:00Z,00000200,01000000,0000.80,0000.06,0000.27,0000.34,0000.48,-000.03,0000.53,0000.32,0000.28,12.7,19.1,,00.0,0647.4,30.3
2021-11-07T06:25:00Z,00000200,01000000,0001.01,0000.33,-000.05,0000.23,0000.31,-000.08,0000.12,-000.09,-000.04,12.7,19.2,,00.0,0647.4,30.3
2021-11-07T06:26:00Z,00000200,01000000,0000.85,0000.18,0000.28,-000.48,0000.20,0000.16,0000.05,0000.14,0000.03,12.7,19.1,,00.0,0647.5,30.3
2021-11-07T06:27:00Z,00000200,01000000,0000.55,-000.02,0000.23,0000.10,-000.09,-000.08,0000.18,0000.52,0000.17,12.7,19.1,,00.0,0647.5,30.3
2021-11-07T06:28:00Z,00000200,01000000,0000.53,-000.05,0000.11,-000.12,0000.34,0000.14,0000.53,-000.04,-000.04,12.7,19.1,,00.0,0647.5,30.3
2021-11-07T06:29:00Z,00000200,01000000,0000.91,0000.45,0000.31,-000.51,-000.20,0000.20,0000.18,0000.42,0000.38,12.7,19.1,,00.0,0647.5,30.3
2021-11-07T06:30:00Z,00000200,01000000,0000.88,0000.19,0000.02,0000.30,0000.24,-000.01,-000.10,-000.08,0000.24,12.7,19.1,,00.0,0647.5,30.3
2021-11-07T06:31:00Z,00000200,01000000,0001.08,0000.11,-000.03,-000.56,0000.07,-000.02,0000.30,0000.10,-000.32,12.7,19.1,,00.0,0647.5,30.3
2021-11-07T06:32:00Z,00000200,01000000,0000.98,0000.55,0000.21,0000.29,0000.37,0000.19,0000.22,0000.22,0000.04,12.7,19.1,,00.0,0647.5,30.3
2021-11-07T06:33:00Z,00000200,01000000,0000.45,0000.30,0000.04,0000.03,0000.20,0000.17,0000.02,0000.18,0000.22,12.7,19.1,,00.0,0647.5,30.3
2021-11-07T06:34:00Z,00000200,01000000,0000.35,0000.27,-000.13,-000.07,0000.09,-000.06,0000.45,0000.10,0000.15,12.7,19.1,,00.0,0647.5,30.3
2021-11-07T06:35:00Z,00000200,01000000,0001.23,0000.39,0000.37,-000.05,0000.27,-000.25,-000.14,0000.24,0000.45,12.7,19.1,,00.0,0647.5,30.3
2021-11-07T06:36:00Z,00000200,01000000,0000.85,0000.12,0000.09,0000.71,0000.33,-000.08,0000.12,0000.20,-000.08,12.7,19.1,,00.0,0647.6,30.3
2021-11-07T06:37:00Z,00000200,01000000,0001.30,0000.34,-000.02,0000.37,0000.16,0000.14,0000.20,-000.22,0000.10,12.7,19.1,,00.0,0647.6,30.3
2021-11-07T06:38:00Z,00000200,01000000,0000.64,0000.26,0000.19,0000.23,0000.21,0000.07,0000.13,-000.02,0000.06,12.6,19.0,,00.0,0647.6,30.3
2021-11-07T06:39:00Z,00000200,01000000,0000.93,0000.07,0000.14,0000.12,0000.34,0000.17,0000.12,0000.06,0000.34,12.6,19.0,,00.0,0647.6,30.3
2021-11-07T06:40:00Z,00000200,01000000,0000.75,0000.23,0000.10,-000.24,0000.08,0000.03,0000.02,0000.17,-000.44,12.6,19.0,,00.0,0647.6,30.3
2021-11-07T06:41:00Z,00000200,01000000,0000.83,-000.14,0000.36,0000.29,0000.34,-000.10,0000.22,0000.12,0000.16,12.6,19.0,,00.0,0647.6,30.3
2021-11-07T06:42:00Z,00000200,01000000,0000.88,0000.19,0000.15,-000.77,0000.16,-000.05,0000.19,0000.08,0000.27,12.6,19.0,,00.0,0647.7,30.3
2021-11-07T06:43:00Z,00000200,01000000,0000.69,0000.18,0000.29,0000.01,0000.01,0000.16,-000.21,0000.46,-000.17,12.6,19.0,,00.0,0647.7,30.3
2021-11-07T06:44:00Z,00000200,01000000,0000.59,0000.09,0000.28,-000.41,0000.10,-000.05,-000.08,-000.20,0000.23,12.6,19.0,,00.0,0647.8,30.3
2021-11-07T06:45:00Z,00000200,01000000,0001.07,-000.04,0000.14,0000.32,0000.34,0000.11,0000.48,-000.24,-000.01,12.6,19.0,,00.0,0647.8,30.3
2021-11-07T06:46:00Z,00000200,01000000,0000.55,-000.15,0000.24,-000.21,0000.11,0000.13,-000.20,0000.20,0000.06,12.6,19.0,,00.0,0647.8,30.3
2021-11-07T06:47:00Z,00000200,01000000,0000.65,0000.29,0000.03,0000.22,-000.06,-000.22,-000.08,-000.06,-000.15,12.6,19.0,,00.0,0647.8,30.3
2021-11-07T06:48:00Z,00000200,01000000,0000.94,0000.07,0000.05,0000.69,0000.17,-000.10,0000.37,0000.12,-000.02,12.6,19.0,,00.0,0647.8,30.3
2021-11-07T06:49:00Z,00000200,01000000,0000.37,0000.45,0000.23,0000.24,0000.08,0000.00,0000.05,-000.00,0000.07,12.6,18.9,,00.0,0647.9,30.3
2021-11-07T06:50:00Z,00000200,01000000,0000.60,0000.37,0000.06,0000.20,0000.26,0000.30,0000.43,0000.46,0000.07,12.6,19.0,,00.0,0647.9,30.3
2021-11-07T06:51:00Z,00000200,01000000,0000.03,0000.23,0000.48,0000.01,0000.12,0000.16,-000.21,0000.18,0000.20,12.6,18.9,,00.0,0647.9,30.3
2021-11-07T06:52:00Z,00000200,01000000,0000.91,0000.12,0000.20,0000.19,0000.22,-000.15,0000.17,0000.11,0000.46,12.6,18.9,,00.0,0647.9,30.3
2021-11-07T06:53:00Z,00000200,01000000,0000.42,0000.20,0000.16,0000.41,0000.26,0000.12,0000.22,0000.12,-000.43,12.6,18.9,,00.0,0647.9,30.3
2021-11-07T06:54:00Z,00000200,01000000,0000.41,-000.05,-000.06,0000.41,0000.17,0000.02,0000.36,-000.05,0000.17,12.6,18.9,,00.0,0647.9,30.3
2021-11-07T06:55:00Z,00000200,01000000,0001.40,0000.04,0000.04,0000.42,0000.36,-000.01,-000.09,0000.17,0000.13,12.5,18.9,,00.0,0647.9,30.3
2021-11-07T06:56:00Z,00000200,01000000,0000.19,0000.20,0000.20,-000.50,0000.35,0000.05,-000.01,0000.37,0000.13,12.6,18.9,,00.0,0647.9,30.3
2021-11-07T06:57:00Z,00000200,41000000,,,,,,,0000.14,-000.40,-000.20,12.6,18.9,,00.0,0648.0,30.3
2021-11-07T06:58:00Z,00000200,61000000,,,,,,,0000.47,-000.12,0000.24,12.2,19.0,,00.0,0647.0,30.3
2021-11-07T06:59:00Z,00000200,21000000,,,,,,,-000.24,0000.75,-000.08,12.2,19.1,,00.0,0647.0,30.3
